Zurück zum Katalog

YAOGAN-30 M

AktivMilitärVLEO
NORAD 43172·PAYLOAD·🇨🇳 China

Gestartet Jan 25, 2018 von Xichang Satellite Launch Center

Loading…

Nächste Überflüge (nächste 24 Stunden)

TLE

AktuellSource: Space-Track

Epoche: Sep 14, 2026, 13:50 UTC

1 43172U 18011D   26257.57706211  .00001978  00000-0  14594-3 0  9990
2 43172  34.9978 326.0057 0001490 174.8844 185.1879 15.03068478471544

Verfolge YAOGAN-30 M in Echtzeit mit AllMySat

Download on the App Store